Location: ??????
(55.7522°N, 37.6156°E)
Time: 17:22:06
(UTC+00:00)

Cosmos 1328 - Pass Details

Date: 14 June 2025
Orbit: 474 x 489 km, 82.5° (Epoch: 12 July)

Event Time Altitude Azimuth Distance (km) Brightness Sun altitude
Exits shadow 22:28:41 13° 214° (SSW) 1,463 5.4 -10.0°
Maximum altitude 22:31:42 47° 287° (WNW) 641 4.2 -9.9°
Drops below altitude 10° 22:35:14 10° 3° (N) 1,659 7.8 -9.7°
Sets 22:37:24 0° 9° (N) 2,544 9.4 -9.6°
